RH
100 99 100 95 99 95 96 96 95 96 96 97 97 98 82 46 29 30 32 32 32 31 29 27 26 38 45 59 55 60 55 60 65 64 63 62 70 77 83 71 67 67 69 62 66 64 59
100 100 98 99 94 97 97 96 95 95 96 97 98 100 85 35 31 28 26 28 29 29 28 27 28 39 64 63 52 51 53 66 65 65 62 61 67 67 78 72 69 64 70 73 67 63 58
99 100 99 99 97 96 96 96 86 64 78 93 98 97 67 37 35 34 30 25 25 26 25 26 36 46 59 56 49 56 60 63 65 67 67 62 60 69 76 76 64 67 79 71 72 60 59
100 98 98 99 99 99 97 98 89 84 82 77 82 73 38 34 35 32 29 28 30 29 27 27 41 64 65 50 41 56 58 59 60 62 65 64 64 71 73 69 69 78 76 91 59 65 57
100 94 98 97 93 97 97 96 96 75 46 46 47 36 36 37 36 32 31 31 31 29 29 40 51 63 60 49 54 54 55 60 60 58 60 61 64 74 76 81 86 75 92 90 75 56 60
95 99 100 99 99 100 99 100 98 85 66 38 31 32 34 36 34 33 31 40 35 53 55 58 58 50 45 42 45 52 56 58 60 62 67 69 80 84 79 88 100 100 95 73 77 54 59
99 97 96 95 100 100 99 91 91 84 74 63 37 24 28 35 31 36 39 48 47 57 50 51 38 44 30 44 47 52 55 56 59 69 87 76 83 89 75 67 72 73 70 72 60 53 64
98 92 89 88 89 88 88 88 86 82 79 73 49 22 24 30 31 36 38 58 63 62 66 44 40 29 31 37 46 58 51 64 65 73 64 75 85 66 60 55 61 63 61 67 60 52 61
87 85 87 91 93 94 95 93 90 89 83 74 59 29 22 27 37 42 38 52 52 65 78 47 32 33 36 39 44 52 54 48 55 65 59 56 58 52 58 61 65 65 59 70 67 60 51
81 84 82 84 84 87 88 89 88 86 79 73 64 43 23 28 43 47 53 51 60 64 84 54 30 33 40 41 48 40 48 47 46 57 48 51 56 59 64 72 65 76 65 68 69 68 84
79 80 78 79 78 78 78 78 77 75 70 66 64 57 25 48 47 52 49 49 53 60 45 30 30 31 33 39 35 43 45 48 51 45 41 48 58 71 75 70 56 68 65 74 70 70 72
80 85 90 95 93 96 95 93 94 84 70 63 50 55 54 47 48 59 46 49 58 72 36 33 31 36 40 44 38 51 48 49 51 47 46 48 39 45 49 45 51 56 62 60 60 67 96
100 99 100 100 100 100 100 100 100 100 73 64 48 42 54 47 51 51 46 61 75 59 28 26 31 32 35 36 37 42 50 64 53 53 48 45 47 45 41 51 52 59 73 92 95 97 91
93 92 95 97 98 95 89 91 98 95 49 47 46 37 48 44 52 46 63 64 42 34 28 29 32 36 43 31 31 35 39 46 41 40 55 68 62 52 43 52 51 65 70 90 91 92 82
89 89 87 87 88 89 89 92 91 90 71 39 42 45 69 56 53 50 75 82 44 50 29 32 34 39 36 33 29 31 37 39 41 41 54 50 50 36 42 36 41 49 65 52 69 69 89
84 84 83 83 88 88 88 88 87 88 76 52 69 86 64 68 51 62 75 62 57 28 37 34 31 36 28 30 33 34 29 29 35 34 38 42 56 39 41 40 45 46 44 66 84 80 73
82 82 81 82 81 85 88 89 88 85 84 61 97 92 66 57 53 80 82 75 52 33 31 39 36 32 33 28 28 32 29 27 33 40 40 44 53 47 37 52 53 58 56 54 54 66 72
79 80 81 82 81 81 82 87 89 87 88 78 96 92 64 56 71 84 80 52 35 33 37 43 42 43 34 28 31 37 39 28 34 44 51 47 51 68 52 37 35 39 47 46 69 54 56
77 79 79 78 80 80 82 82 82 85 90 98 90 96 69 62 72 66 56 49 34 34 45 46 48 48 37 35 35 38 33 40 44 46 44 40 51 68 50 45 43 43 41 40 41 55 61
78 76 76 76 78 79 83 80 82 85 79 91 85 95 82 82 75 66 78 64 58 50 43 41 43 38 41 43 39 39 37 44 46 48 50 44 52 51 48 34 36 38 40 41 46 80 57
74 73 75 75 76 74 75 79 79 81 59 96 93 89 91 97 85 80 72 70 64 62 44 42 44 44 46 50 44 46 42 47 56 56 54 60 73 62 55 49 48 48 46 44 55 50 48
76 76 74 74 73 73 74 74 77 80 57 81 93 95 86 85 81 83 77 75 69 66 68 74 66 76 70 55 44 46 39 43 47 72 68 66 66 57 55 47 51 54 48 48 47 43 51
74 74 75 74 75 74 73 74 78 78 78 82 84 78 97 80 83 77 64 68 72 70 66 63 67 76 74 58 49 48 52 44 42 71 76 67 74 68 63 42 49 51 42 44 49 46 40
75 74 75 74 76 76 75 75 76 79 76 82 90 88 98 87 78 75 68 64 65 63 68 59 56 61 59 50 50 48 50 53 52 54 63 65 67 68 78 54 63 36 36 38 43 40 38
74 79 79 77 71 77 76 75 74 75 80 77 77 87 88 92 70 75 71 66 72 66 74 75 67 53 60 60 64 70 60 63 62 58 57 56 58 61 68 74 50 38 45 43 41 34 37
81 81 81 74 81 75 74 75 74 72 74 79 79 83 90 97 76 72 91 85 90 73 71 68 61 68 77 68 63 94 84 64 61 72 72 64 59 55 75 75 68 39 39 37 32 42 36
77 80 82 76 82 74 73 74 72 71 70 71 79 81 89 96 74 75 89 95 83 92 93 76 68 72 56 78 83 81 87 48 56 60 90 85 84 78 68 77 66 43 41 36 42 38 38
77 77 78 74 75 76 72 72 74 75 73 74 77 80 91 86 76 69 66 81 77 80 94 73 74 62 80 94 98 77 84 63 61 49 80 64 84 87 75 81 77 41 42 41 36 40 38
79 78 78 76 75 78 75 72 72 75 78 80 82 76 84 98 89 78 74 72 79 90 96 90 87 82 83 98 86 95 91 84 76 92 46 58 50 70 59 56 40 41 36 36 42 41 42
Wind_Speed
14 14 15 14 15 15 16 16 16 17 18 18 19 18 15 13 12 14 14 15 14 14 16 16 18 13 5 3 2 4 7 5 6 6 4 2 4 5 4 7 7 8 4 9 7 9 11
14 14 15 15 16 16 16 16 17 18 20 21 22 21 17 13 13 13 15 16 16 15 15 16 14 8 2 1 3 7 5 4 6 9 8 5 2 2 5 5 3 3 4 8 5 9 6
14 15 15 16 16 17 17 18 18 20 21 23 24 22 18 15 14 13 13 15 16 16 15 13 9 3 3 6 2 5 6 3 6 4 3 4 3 3 5 5 5 6 5 6 6 6 6
14 15 16 16 17 17 18 19 20 21 22 24 26 23 18 17 17 14 14 15 16 15 13 8 2 1 5 4 3 2 3 4 3 4 4 3 1 2 2 4 5 2 2 4 5 6 5
15 15 16 17 17 18 19 20 21 22 23 26 28 24 19 19 18 16 15 15 13 9 5 2 2 2 6 2 2 5 0 1 5 8 5 6 2 3 2 2 3 1 4 4 7 6 5
16 17 17 18 19 20 21 23 23 25 27 26 27 26 22 19 18 14 15 9 4 2 3 2 4 1 3 2 3 3 5 2 1 5 4 3 2 2 1 2 3 2 5 5 5 3 7
16 18 19 21 20 21 22 25 26 28 30 31 29 27 24 20 15 14 15 3 5 3 2 5 3 4 0 2 2 5 6 2 3 2 3 3 1 4 7 4 6 6 5 6 6 8 1
16 18 20 21 22 24 26 28 29 30 31 33 32 27 25 19 11 11 7 5 2 1 6 9 9 3 4 2 2 4 5 1 3 4 0 3 4 6 6 4 4 7 7 7 7 8 4
15 17 19 19 21 22 24 26 29 31 31 33 33 30 26 17 6 7 8 4 1 1 1 5 3 3 2 4 4 5 8 2 4 4 5 4 4 1 3 5 5 3 5 3 7 8 6
14 15 17 18 20 21 23 25 27 29 32 33 33 31 26 18 3 7 2 7 3 1 4 4 3 3 2 1 4 2 8 2 3 4 5 5 4 2 2 4 5 3 5 3 9 6 3
15 15 16 18 19 20 22 24 26 28 30 33 32 30 23 11 7 3 5 6 4 1 5 4 2 2 2 4 4 3 3 3 4 4 3 7 4 5 4 5 3 6 2 5 6 6 4
13 14 16 18 20 22 24 26 27 29 30 31 32 26 23 7 5 3 7 6 1 5 4 3 2 3 2 5 3 2 1 1 3 3 4 9 1 3 5 3 4 3 5 4 2 1 2
17 18 19 20 22 23 24 26 28 30 30 31 33 25 16 8 2 5 5 2 5 4 2 3 3 1 3 4 3 6 4 3 3 3 3 6 4 2 2 3 1 1 4 3 1 2 5
17 17 18 21 22 23 25 26 27 31 32 30 32 26 11 8 6 3 1 5 3 4 5 0 2 2 4 2 4 3 3 4 2 3 1 1 7 7 4 5 3 5 4 4 3 2 5
17 18 19 21 22 23 24 27 29 33 35 28 29 18 9 4 5 5 4 3 7 6 2 1 5 2 3 3 2 2 6 5 6 7 6 1 5 2 4 2 5 2 4 4 2 2 2
18 18 20 21 23 25 26 27 30 34 37 24 23 9 5 2 3 3 4 7 5 3 5 2 5 6 3 2 2 3 3 3 4 2 2 4 4 4 3 1 5 4 2 3 2 2 4
17 19 20 22 23 25 26 29 31 34 40 25 4 3 2 1 3 4 3 6 5 0 3 5 3 4 7 3 5 3 6 2 4 4 3 3 3 5 2 6 6 3 3 5 2 4 4
17 18 21 22 24 26 28 29 31 34 37 24 9 3 4 1 2 2 2 4 4 1 1 4 3 5 5 3 3 5 6 6 7 6 5 5 3 5 9 3 4 4 6 6 4 5 2
17 18 20 21 22 25 27 29 31 32 30 16 6 3 3 2 1 3 7 7 4 4 5 3 3 6 1 4 3 6 4 0 6 7 5 3 3 4 4 4 1 4 5 5 2 2 6
16 17 19 20 22 24 25 29 31 33 31 13 3 4 4 3 1 3 7 7 6 8 4 4 4 3 1 3 4 5 2 2 5 4 4 2 3 7 6 4 3 4 5 6 6 3 4
15 17 18 19 21 23 25 26 30 33 28 6 2 2 3 4 4 10 6 5 10 7 2 3 4 5 6 4 5 6 5 2 3 4 4 4 5 4 10 12 7 10 10 10 9 8 6
14 16 17 19 20 22 23 25 25 29 30 9 4 4 5 6 7 6 6 4 11 8 8 9 6 16 16 8 11 17 6 4 7 3 6 3 4 3 5 10 10 9 12 12 10 10 10
14 15 17 18 20 21 22 23 23 24 25 7 8 7 1 5 4 4 5 7 13 16 10 6 14 15 12 13 5 11 9 10 7 8 9 6 4 1 6 3 5 8 11 11 6 6 8
14 15 16 17 18 19 20 20 21 18 17 15 12 7 2 4 2 4 14 18 20 19 20 19 20 16 7 22 19 12 10 10 8 8 8 7 5 3 4 3 4 7 1 4 7 6 10
15 16 16 17 18 18 18 18 18 18 16 15 16 6 3 6 8 12 11 13 16 15 16 17 18 12 14 13 10 8 4 4 6 11 10 7 6 3 3 4 7 6 6 8 8 7 13
18 18 17 18 17 19 19 19 18 18 18 16 17 12 6 6 5 6 11 9 13 15 15 14 6 12 8 4 7 10 9 4 5 2 5 4 3 6 4 4 7 6 1 4 4 5 7
18 19 18 19 19 20 20 20 20 20 20 19 22 19 7 8 12 13 10 7 4 4 6 7 7 6 4 4 11 14 14 3 13 10 4 2 2 13 12 6 7 9 6 3 5 7 7
19 19 20 21 21 21 22 22 22 21 21 21 23 23 15 8 17 22 25 19 13 9 11 7 10 5 4 6 6 10 8 8 13 21 8 12 10 6 6 5 11 6 2 8 5 2 6
21 21 22 22 23 23 23 24 24 25 24 23 24 25 23 15 16 34 42 42 36 27 11 4 8 14 3 3 4 4 13 7 11 9 7 12 11 6 12 8 6 11 4 6 2 5 6
Wind_Direction
43 38 35 33 27 24 21 20 15 10 5 0 354 346 337 327 302 289 289 293 298 307 314 322 331 338 356 356 242 308 343 20 7 340 311 355 37 2 346 334 331 239 262 286 312 328 311
42 40 35 29 27 22 18 15 14 10 4 358 354 348 341 333 330 311 297 294 295 298 304 313 325 333 323 299 195 329 30 29 353 347 350 75 63 299 282 282 290 294 285 276 275 300 295
41 36 32 29 20 21 15 11 12 13 7 0 355 353 353 348 338 327 314 303 298 297 297 305 313 328 280 242 250 346 354 6 343 333 330 61 75 63 335 296 333 288 313 296 252 248 262
39 34 26 24 21 16 14 10 9 9 5 1 358 355 356 350 340 330 321 313 306 299 293 294 274 163 250 236 251 205 316 332 275 311 276 285 238 189 195 311 303 259 347 305 282 237 269
35 31 24 19 16 14 12 10 9 9 10 5 3 358 351 349 343 333 328 318 315 309 285 206 161 175 282 238 217 198 220 284 302 261 253 271 258 218 172 47 332 300 288 243 302 217 257
37 38 35 28 22 20 16 11 10 10 10 9 4 359 351 346 345 344 341 326 359 53 72 130 268 355 245 234 175 200 240 242 281 322 283 223 221 298 299 89 334 278 303 285 255 284 211
40 39 33 29 20 17 16 12 8 7 6 5 3 359 353 346 350 355 352 3 16 4 249 218 196 232 191 186 241 216 196 239 239 247 244 225 28 263 260 204 229 256 257 289 289 267 318
32 27 20 17 13 9 6 4 2 1 360 359 1 359 354 346 349 9 12 58 125 229 313 272 245 267 238 156 283 205 166 257 210 274 244 339 251 252 308 303 272 280 285 294 297 323 223
14 11 7 2 1 359 357 356 352 350 351 352 356 358 354 350 355 16 50 50 23 119 299 293 215 249 221 157 255 194 160 242 251 262 285 241 248 204 244 292 294 266 260 302 302 300 284
8 7 5 1 359 357 353 352 350 346 345 347 349 355 355 355 64 359 49 355 6 308 59 272 252 248 148 226 274 140 189 146 286 269 290 263 185 184 263 270 261 279 189 281 301 334 256
1 360 356 348 345 341 340 340 339 339 340 343 344 349 354 357 333 18 329 328 339 305 23 242 204 163 145 203 308 220 151 127 228 269 15 261 200 226 255 236 240 243 200 237 266 285 318
352 349 350 352 347 349 347 345 343 337 335 338 337 342 339 332 321 281 326 327 55 41 272 319 176 239 239 196 250 107 223 209 230 284 218 242 232 197 221 271 220 319 292 283 177 172 322
25 21 17 15 9 3 1 357 352 347 337 335 332 333 318 301 268 303 326 60 29 124 306 260 277 181 281 251 233 188 200 230 194 25 334 308 200 200 156 285 212 148 19 356 21 346 235
20 20 17 12 7 4 0 358 352 346 338 334 329 331 307 278 243 273 81 56 105 235 243 320 250 278 224 216 251 215 271 275 219 142 248 176 323 164 180 211 187 209 169 154 261 240 271
25 20 16 13 8 7 5 360 354 348 344 340 328 332 289 274 197 168 85 75 215 204 187 312 320 274 264 213 215 264 219 219 204 188 174 203 273 165 191 236 140 326 191 191 222 247 45
26 21 18 14 12 10 5 2 356 350 346 346 327 317 313 176 187 125 92 224 235 200 131 126 207 190 253 233 217 169 250 192 189 201 121 234 291 231 167 73 253 186 301 36 355 292 297
24 22 18 16 12 10 6 4 360 354 350 351 332 349 7 180 172 52 195 234 282 212 153 185 244 261 230 258 211 232 258 253 168 174 165 274 156 287 114 190 192 137 257 221 209 163 212
16 16 13 12 9 9 8 4 0 359 356 7 347 341 4 105 27 245 225 236 339 229 140 259 239 243 229 222 252 240 237 214 169 151 186 212 223 258 228 240 167 173 220 179 141 270 252
14 12 12 8 6 6 5 2 360 358 1 347 334 282 328 309 242 316 315 308 306 252 209 194 262 230 266 249 217 221 262 72 150 159 196 185 244 311 335 342 326 197 205 208 171 81 223
8 6 5 5 3 4 4 2 360 357 355 351 349 339 330 28 324 357 353 304 336 329 279 259 257 268 261 274 241 269 253 216 197 197 138 71 245 207 228 242 135 220 221 193 164 156 232
1 1 1 3 2 0 1 360 359 359 5 22 10 351 7 337 338 327 324 301 309 346 334 317 315 230 220 264 277 226 247 219 205 196 163 172 246 230 260 270 270 257 244 218 199 213 206
359 359 359 358 358 357 356 358 2 3 5 49 25 354 353 303 288 334 331 322 307 341 347 320 346 345 328 265 257 286 300 204 218 159 174 202 258 255 279 251 251 260 258 245 225 233 248
350 351 351 352 350 351 351 354 358 4 13 12 2 343 309 287 331 327 264 323 321 336 291 315 334 321 309 307 290 287 265 260 215 171 194 179 206 181 265 298 311 288 244 212 208 202 193
337 339 341 343 343 343 344 348 350 355 3 358 350 325 302 279 286 297 306 300 296 294 288 297 310 294 298 314 302 292 279 253 238 222 178 177 185 170 256 330 248 245 284 166 217 231 213
324 324 329 330 334 334 335 337 341 342 343 341 334 342 304 285 301 281 270 295 292 287 292 299 293 288 315 302 303 293 294 295 236 227 217 192 162 235 218 207 289 286 220 187 175 271 207
315 317 319 321 323 327 326 328 329 331 332 329 323 320 299 297 250 302 306 286 293 289 285 258 279 304 341 276 230 249 243 225 236 249 348 159 126 200 163 217 230 247 182 146 146 280 188
311 313 314 316 317 320 320 321 322 321 321 322 311 309 284 281 276 264 271 278 276 301 284 292 304 330 294 271 250 242 248 246 241 239 178 159 198 216 224 247 276 256 177 138 164 236 170
310 310 310 313 312 313 314 312 310 309 308 309 303 300 277 275 277 273 269 271 271 244 263 299 317 279 260 244 249 229 233 234 228 233 190 202 178 196 191 220 253 191 49 191 207 17 150
309 309 308 307 308 306 306 305 305 302 301 301 291 295 289 257 276 283 278 275 260 258 264 237 274 268 257 313 299 327 305 291 272 271 225 228 212 190 191 211 225 196 227 228 217 160 173